Change the Weather History Date:

Sunday, January 5, 2014

  Actual Average (KABQ) Record (KABQ)
Temperature  
Mean Temperature 29 °F 36 °F  
Max Temperature 43 °F 46 °F 69 °F (1994)
Min Temperature 15 °F 26 °F -15 °F (1971)
Degree Days  
Heating Degree Days 36 29  
Month to date heating degree days 149  
Since 1 July heating degree days 1906  
Cooling Degree Days 0 0  
Month to date cooling degree days 0  
Year to date cooling degree days 0  
Moisture  
Dew Point -1 °F    
Average Humidity 33    
Maximum Humidity 63    
Minimum Humidity 13    
Precipitation  
Precipitation 0.00 in 0.01 in 0.50 in (1940)
Month to date precipitation 0.06  
Year to date precipitation 0.06  
Snow  
Snow 0.00 in - - ()
Month to date snowfall  
Since 1 July snowfall  
Snow Depth -    
Sea Level Pressure  
Sea Level Pressure 30.18 in    
Wind  
Wind Speed 8 mph (North)    
Max Wind Speed 16 mph    
Max Gust Speed 23 mph    
Visibility 10 miles    
Events      
T = Trace of Precipitation, MM = Missing Value Source: NWS Daily Summary

Daily Weather History Graph

Daily Weather History Graph

Search for Another Location

Airport or City:

Trip Planner

Search our weather history database for the weather conditions in past years. The results will help you decide how hot, cold, wet, or windy it might be!

Date:

Astronomy

Jan. 05, 2014 Rise Set
Actual Time 7:14 AM MST 5:10 PM MST
Civil Twilight 6:47 AM MST 5:38 PM MST
Nautical Twilight 6:15 AM MST 6:09 PM MST
Astronomical Twilight 5:45 AM MST 6:40 PM MST
Moon 10:11 AM MST 10:27 PM MST
Length of Visible Light 10h 51m
Length of Day
9h 55m
Waxing Crescent, 25% of the Moon is Illuminated
Jan 5
Waxing Crescent
Jan 7
First Quarter
Jan 15
Full
Jan 23
Last Quarter
Jan 30
New

Hourly Weather History & Observations

Time (MST) Temp. Windchill Dew Point Humidity Pressure Visibility Wind Dir Wind Speed Gust Speed Precip Events Conditions
12:15 AM 21.9 °F 12.5 °F 2.3 °F 43% 30.09 in 10.0 mi NNW 8.1 mph - N/A   Clear
12:35 AM 21.2 °F 11.7 °F 1.9 °F 43% 30.08 in 10.0 mi WNW 8.1 mph - N/A   Clear
12:55 AM 19.8 °F 9.9 °F 1.9 °F 46% 30.08 in 10.0 mi WNW 8.1 mph - N/A   Clear
1:15 AM 21.6 °F 13.0 °F 1.8 °F 42% 30.09 in 10.0 mi NW 6.9 mph - N/A   Clear
1:35 AM 17.4 °F 7.1 °F 2.3 °F 52% 30.09 in 10.0 mi WNW 8.1 mph - N/A   Clear
2:15 AM 17.2 °F 6.8 °F 3.0 °F 54% 30.10 in 10.0 mi WNW 8.1 mph - N/A   Unknown
2:35 AM 17.8 °F 7.5 °F 2.7 °F 52% 30.10 in 10.0 mi NW 8.1 mph - N/A   Clear
2:55 AM 19.4 °F 9.5 °F 3.0 °F 49% 30.10 in 10.0 mi NW 8.1 mph - N/A   Clear
3:15 AM 19.6 °F 8.9 °F 3.0 °F 49% 30.11 in 10.0 mi NW 9.2 mph - N/A   Unknown
3:35 AM 16.5 °F 6.0 °F 3.0 °F 55% 30.10 in 10.0 mi NW 8.1 mph - N/A   Unknown
3:55 AM 16.7 °F - 3.4 °F 56% - - North - - N/A   Unknown
4:15 AM 16.7 °F 4.5 °F 3.7 °F 57% 30.10 in 10.0 mi NNW 10.4 mph - N/A   Unknown
4:35 AM - - - N/A% - - North - - N/A   Unknown
4:55 AM 18.0 °F 8.7 °F 3.7 °F 54% 30.12 in 10.0 mi NNE 6.9 mph - N/A   Unknown
5:15 AM 18.0 °F 8.7 °F 2.3 °F 50% 30.12 in 10.0 mi NNE 6.9 mph - N/A   Unknown
5:35 AM 15.6 °F 10.0 °F 2.7 °F 57% 30.12 in 10.0 mi NNE 3.5 mph - N/A   Unknown
6:15 AM 18.1 °F 12.9 °F 2.5 °F 51% 30.13 in 10.0 mi North 3.5 mph - N/A   Unknown
6:35 AM 16.2 °F 9.0 °F 2.3 °F 54% 30.14 in 10.0 mi NNE 4.6 mph - N/A   Clear
6:55 AM 15.4 °F 8.1 °F 3.0 °F 58% 30.16 in - NNE 4.6 mph - N/A   Unknown
7:15 AM 16.3 °F 9.2 °F 4.1 °F 59% 30.16 in - NNE 4.6 mph - N/A   Unknown
7:55 AM 17.4 °F 9.1 °F 6.8 °F 63% 30.19 in - NNE 5.8 mph - N/A   Unknown
8:15 AM 22.8 °F 16.7 °F 7.5 °F 52% 30.20 in 10.0 mi NNE 4.6 mph - N/A   Clear
8:35 AM 25.5 °F 18.7 °F 7.5 °F 47% 30.21 in 10.0 mi NE 5.8 mph - N/A   Unknown
8:55 AM - - - N/A% 30.22 in - NE 5.8 mph - N/A   Unknown
9:15 AM 27.9 °F 22.6 °F 5.5 °F 39% 30.23 in 10.0 mi NE 4.6 mph - N/A   Unknown
9:35 AM 29.7 °F - 5.2 °F 35% 30.23 in 10.0 mi Calm Calm - N/A   Clear
9:55 AM 30.7 °F - 4.1 °F 32% 30.23 in 10.0 mi Calm Calm - N/A   Clear
10:15 AM 32.2 °F 26.7 °F 2.7 °F 29% 30.23 in 10.0 mi WNW 5.8 mph - N/A   Clear
10:35 AM 33.4 °F 28.1 °F 1.9 °F 26% 30.23 in 10.0 mi NNW 5.8 mph - N/A   Clear
10:55 AM 34.9 °F 29.9 °F 2.1 °F 25% 30.22 in 10.0 mi North 5.8 mph - N/A   Clear
11:15 AM 37.0 °F 29.8 °F -0.2 °F 21% 30.21 in 10.0 mi NW 10.4 mph - N/A   Clear
11:35 AM 37.4 °F 30.3 °F -1.3 °F 19% 30.19 in 10.0 mi NW 10.4 mph 16.1 mph N/A   Clear
11:55 AM 37.9 °F 30.5 °F -1.5 °F 19% 30.18 in 10.0 mi NW 11.5 mph 17.3 mph N/A   Clear
12:15 PM 39.7 °F 32.7 °F -1.1 °F 18% 30.17 in 10.0 mi NNE 11.5 mph 18.4 mph N/A   Clear
12:35 PM 37.2 °F 34.7 °F 2.7 °F 23% 30.16 in 10.0 mi North 3.5 mph - N/A   Clear
12:55 PM 38.5 °F 36.1 °F 0.7 °F 20% 30.15 in 10.0 mi NNE 3.5 mph - N/A   Clear
1:15 PM 41.0 °F 34.3 °F -2.2 °F 16% 30.14 in 10.0 mi NW 11.5 mph - N/A   Clear
1:35 PM 41.7 °F 34.8 °F -2.9 °F 15% 30.14 in 10.0 mi WNW 12.7 mph 16.1 mph N/A   Clear
1:55 PM 41.9 °F 35.4 °F -3.3 °F 15% 30.14 in 10.0 mi NW 11.5 mph 18.4 mph N/A   Clear
2:15 PM 42.3 °F 34.8 °F -3.3 °F 15% 30.14 in 10.0 mi North 15.0 mph - N/A   Clear
2:35 PM 43.2 °F 36.2 °F -3.3 °F 14% 30.14 in 10.0 mi NNW 13.8 mph 17.3 mph N/A   Clear
2:55 PM 43.0 °F 36.4 °F -3.6 °F 14% 30.14 in 10.0 mi NNW 12.7 mph - N/A   Clear
3:15 PM 42.8 °F 35.4 °F -4.7 °F 14% 30.14 in 10.0 mi North 15.0 mph 23.0 mph N/A   Clear
3:35 PM 42.8 °F 35.1 °F -5.4 °F 13% 30.14 in 10.0 mi NNW 16.1 mph 21.9 mph N/A   Clear
3:55 PM 42.4 °F 35.0 °F -5.8 °F 13% 30.14 in 10.0 mi NNW 15.0 mph 21.9 mph N/A   Clear
4:15 PM 41.9 °F 35.4 °F -6.3 °F 13% 30.15 in 10.0 mi North 11.5 mph - N/A   Clear
4:35 PM 39.9 °F 32.9 °F -6.9 °F 14% 30.16 in 10.0 mi North 11.5 mph - N/A   Clear
4:55 PM 37.2 °F 30.0 °F -8.0 °F 14% 30.17 in 10.0 mi North 10.4 mph - N/A   Clear
5:15 PM 33.6 °F 26.2 °F -9.2 °F 16% 30.17 in 10.0 mi North 9.2 mph - N/A   Clear
5:35 PM 31.1 °F 21.9 °F -9.4 °F 17% 30.17 in 10.0 mi North 11.5 mph - N/A   Clear
5:55 PM 32.0 °F 24.2 °F -8.9 °F 17% 30.19 in 10.0 mi North 9.2 mph - N/A   Clear
6:15 PM 28.9 °F 21.9 °F -9.8 °F 18% 30.20 in 10.0 mi NE 6.9 mph - N/A   Clear
6:35 PM 28.6 °F 19.9 °F -8.5 °F 20% 30.20 in 10.0 mi NNE 9.2 mph - N/A   Clear
6:55 PM 30.0 °F 24.1 °F -8.3 °F 19% 30.20 in 10.0 mi North 5.8 mph - N/A   Clear
7:15 PM 28.9 °F 20.4 °F -7.4 °F 21% 30.22 in 10.0 mi North 9.2 mph - N/A   Clear
7:35 PM 30.2 °F 20.2 °F -6.5 °F 20% 30.23 in 10.0 mi NNE 12.7 mph - N/A   Clear
7:55 PM 28.0 °F 19.3 °F -6.2 °F 23% 30.24 in 10.0 mi ENE 9.2 mph - N/A   Clear
8:15 PM 25.3 °F 14.7 °F -5.6 °F 26% 30.24 in 10.0 mi North 11.5 mph - N/A   Clear
8:35 PM 24.8 °F 14.6 °F -4.2 °F 28% 30.25 in 10.0 mi NNE 10.4 mph - N/A   Clear
8:55 PM 27.7 °F 18.2 °F -3.3 °F 26% 30.27 in 10.0 mi NE 10.4 mph - N/A   Clear
9:15 PM 22.8 °F 13.6 °F -3.3 °F 32% 30.27 in - North 8.1 mph - N/A   Unknown
9:35 PM 21.2 °F 12.6 °F -2.7 °F 35% 30.27 in 10.0 mi NNE 6.9 mph - N/A   Clear
9:55 PM 21.9 °F 13.4 °F -2.2 °F 35% 30.29 in - ENE 6.9 mph - N/A   Unknown
10:15 PM 25.7 °F 20.1 °F -1.5 °F 31% 30.29 in 10.0 mi NNE 4.6 mph - N/A   Unknown
10:35 PM 20.7 °F 13.0 °F -1.7 °F 38% 30.30 in 10.0 mi WNW 5.8 mph - N/A   Clear
10:55 PM 20.5 °F 11.7 °F -2.2 °F 37% 30.30 in - NNW 6.9 mph - N/A   Unknown
11:15 PM 21.6 °F 13.0 °F -1.7 °F 36% 30.31 in 10.0 mi North 6.9 mph - N/A   Unknown
11:35 PM 20.7 °F 14.2 °F -1.8 °F 37% 30.31 in 10.0 mi North 4.6 mph - N/A   Unknown
11:55 PM 24.6 °F 20.3 °F -0.9 °F 33% 30.32 in 10.0 mi North 3.5 mph - N/A   Unknown